contact:dominique.lefevre@mio.osupytheas.fr, maurice.libes@osupytheas.fr, didier.mallarino@osupytheas.fr
Project:EMSO http://www.emso-fr.org/EMSO-France
Depth: 2436.0 m
Title:EMSO Ligure Ouest : Data MII capteur MICROCAT
DateTime_Computer,Latitude,Longitude,Temperature,Conductivity,Pressure,DateTime_Instrument
DateTime_Computer,Latitude,Longitude,degC,S m-1,dbar,DateTime_Instrument
2019-07-04T00:02:44Z,42.805,6.029,13.2960,4.59963,2469.947,2019-7-04T02:03:02Z
2019-07-04T00:05:47Z,42.805,6.029,13.2968,4.59973,2469.914,2019-7-04T02:06:05Z
2019-07-04T00:08:50Z,42.805,6.029,13.2970,4.59966,2469.876,2019-7-04T02:09:08Z
2019-07-04T00:11:53Z,42.805,6.029,13.2966,4.59968,2469.914,2019-7-04T02:12:11Z
2019-07-04T00:14:56Z,42.805,6.029,13.2965,4.59971,2469.9,2019-7-04T02:15:14Z
2019-07-04T00:17:59Z,42.805,6.029,13.2965,4.59967,2469.876,2019-7-04T02:18:16Z
2019-07-04T00:21:02Z,42.805,6.029,13.2960,4.59970,2469.89,2019-7-04T02:21:19Z
2019-07-04T00:24:05Z,42.805,6.029,13.2963,4.59964,2469.876,2019-7-04T02:24:22Z
2019-07-04T00:27:08Z,42.805,6.029,13.2959,4.59963,2469.863,2019-7-04T02:27:25Z
2019-07-04T00:30:11Z,42.805,6.029,13.2969,4.59979,2469.876,2019-7-04T02:30:28Z
2019-07-04T00:33:14Z,42.805,6.029,13.2964,4.59972,2469.9,2019-7-04T02:33:31Z
2019-07-04T00:36:17Z,42.805,6.029,13.2964,4.59971,2469.89,2019-7-04T02:36:34Z
2019-07-04T00:39:20Z,42.805,6.029,13.2962,4.59971,2469.89,2019-7-04T02:39:37Z
2019-07-04T00:42:23Z,42.805,6.029,13.2964,4.59970,2469.867,2019-7-04T02:42:40Z
2019-07-04T00:45:25Z,42.805,6.029,13.2960,4.59964,2469.914,2019-7-04T02:45:43Z
2019-07-04T00:48:28Z,42.805,6.029,13.2966,4.59966,2469.9,2019-7-04T02:48:46Z
2019-07-04T00:51:31Z,42.805,6.029,13.2961,4.59964,2469.876,2019-7-04T02:51:49Z
2019-07-04T00:54:34Z,42.805,6.029,13.2964,4.59970,2469.876,2019-7-04T02:54:52Z
2019-07-04T00:57:37Z,42.805,6.029,13.2964,4.59966,2469.876,2019-7-04T02:57:55Z
2019-07-04T01:00:40Z,42.805,6.029,13.2962,4.59966,2469.89,2019-7-04T03:00:58Z
2019-07-04T01:03:43Z,42.805,6.029,13.2964,4.59965,2469.867,2019-7-04T03:04:01Z
2019-07-04T01:06:46Z,42.805,6.029,13.2957,4.59970,2469.876,2019-7-04T03:07:04Z
2019-07-04T01:09:49Z,42.805,6.029,13.2961,4.59992,2469.844,2019-7-04T03:10:07Z
2019-07-04T01:12:52Z,42.805,6.029,13.2961,4.59966,2469.876,2019-7-04T03:13:09Z
2019-07-04T01:15:55Z,42.805,6.029,13.2958,4.59964,2469.83,2019-7-04T03:16:12Z
2019-07-04T01:18:58Z,42.805,6.029,13.2960,4.59966,2469.83,2019-7-04T03:19:15Z
2019-07-04T01:22:01Z,42.805,6.029,13.2964,4.59964,2469.867,2019-7-04T03:22:18Z
2019-07-04T01:25:04Z,42.805,6.029,13.2964,4.59967,2469.844,2019-7-04T03:25:21Z
2019-07-04T01:28:07Z,42.805,6.029,13.2961,4.59968,2469.83,2019-7-04T03:28:24Z
2019-07-04T01:31:10Z,42.805,6.029,13.2965,4.59963,2469.876,2019-7-04T03:31:27Z
2019-07-04T01:34:13Z,42.805,6.029,13.2961,4.59969,2469.83,2019-7-04T03:34:30Z
2019-07-04T01:37:16Z,42.805,6.029,13.2963,4.59970,2469.844,2019-7-04T03:37:33Z
2019-07-04T01:40:18Z,42.805,6.029,13.2964,4.59970,2469.844,2019-7-04T03:40:36Z
2019-07-04T01:43:21Z,42.805,6.029,13.2964,4.59985,2469.806,2019-7-04T03:43:39Z
2019-07-04T01:46:24Z,42.805,6.029,13.2964,4.59985,2469.83,2019-7-04T03:46:42Z
2019-07-04T01:49:27Z,42.805,6.029,13.2969,4.59966,2469.806,2019-7-04T03:49:45Z
2019-07-04T01:52:30Z,42.805,6.029,13.2962,4.59968,2469.806,2019-7-04T03:52:48Z
2019-07-04T01:55:33Z,42.805,6.029,13.2964,4.59969,2469.821,2019-7-04T03:55:51Z
2019-07-04T01:58:36Z,42.805,6.029,13.2968,4.59968,2469.83,2019-7-04T03:58:54Z
2019-07-04T02:01:39Z,42.805,6.029,13.2967,4.59972,2469.821,2019-7-04T04:01:57Z
2019-07-04T02:04:42Z,42.805,6.029,13.2964,4.59966,2469.83,2019-7-04T04:05:00Z
2019-07-04T02:07:45Z,42.805,6.029,13.2961,4.59968,2469.83,2019-7-04T04:08:02Z
2019-07-04T02:10:48Z,42.805,6.029,13.2963,4.59966,2469.83,2019-7-04T04:11:05Z
2019-07-04T02:13:51Z,42.805,6.029,13.2963,4.59970,2469.844,2019-7-04T04:14:08Z
2019-07-04T02:16:54Z,42.805,6.029,13.2963,4.59968,2469.844,2019-7-04T04:17:11Z
2019-07-04T02:19:57Z,42.805,6.029,13.2961,4.59968,2469.783,2019-7-04T04:20:14Z
2019-07-04T02:23:00Z,42.805,6.029,13.2961,4.59961,2469.867,2019-7-04T04:23:17Z
2019-07-04T02:26:03Z,42.805,6.029,13.2966,4.59974,2469.806,2019-7-04T04:26:20Z
2019-07-04T02:29:06Z,42.805,6.029,13.2967,4.59968,2469.821,2019-7-04T04:29:23Z
2019-07-04T02:32:08Z,42.805,6.029,13.2964,4.59970,2469.797,2019-7-04T04:32:26Z
2019-07-04T02:35:11Z,42.805,6.029,13.2962,4.59968,2469.844,2019-7-04T04:35:29Z
2019-07-04T02:38:14Z,42.805,6.029,13.2963,4.59968,2469.783,2019-7-04T04:38:32Z
2019-07-04T02:41:17Z,42.805,6.029,13.2961,4.59970,2469.797,2019-7-04T04:41:35Z
2019-07-04T02:44:20Z,42.805,6.029,13.2960,4.59966,2469.844,2019-7-04T04:44:38Z
2019-07-04T02:47:23Z,42.805,6.029,13.2960,4.59966,2469.806,2019-7-04T04:47:41Z
2019-07-04T02:50:26Z,42.805,6.029,13.2962,4.59970,2469.806,2019-7-04T04:50:44Z
2019-07-04T02:53:29Z,42.805,6.029,13.2961,4.59966,2469.806,2019-7-04T04:53:47Z
2019-07-04T02:56:32Z,42.805,6.029,13.2964,4.59974,2469.821,2019-7-04T04:56:50Z
2019-07-04T02:59:35Z,42.805,6.029,13.2960,4.59965,2469.821,2019-7-04T04:59:53Z
2019-07-04T03:02:38Z,42.805,6.029,13.2963,4.59973,2469.83,2019-7-04T05:02:55Z
2019-07-04T03:05:41Z,42.805,6.029,13.2961,4.59980,2469.806,2019-7-04T05:05:58Z
2019-07-04T03:08:44Z,42.805,6.029,13.2967,4.59966,2469.821,2019-7-04T05:09:01Z
2019-07-04T03:11:47Z,42.805,6.029,13.2958,4.59969,2469.821,2019-7-04T05:12:04Z
2019-07-04T03:14:50Z,42.805,6.029,13.2967,4.59964,2469.821,2019-7-04T05:15:07Z
2019-07-04T03:17:53Z,42.805,6.029,13.2959,4.59962,2469.83,2019-7-04T05:18:10Z
2019-07-04T03:20:56Z,42.805,6.029,13.2959,4.59971,2469.783,2019-7-04T05:21:13Z
2019-07-04T03:23:59Z,42.805,6.029,13.2960,4.59967,2469.806,2019-7-04T05:24:16Z
2019-07-04T03:27:01Z,42.805,6.029,13.2964,4.59971,2469.821,2019-7-04T05:27:19Z
2019-07-04T03:30:04Z,42.805,6.029,13.2965,4.59976,2469.83,2019-7-04T05:30:22Z
2019-07-04T03:33:07Z,42.805,6.029,13.2959,4.59966,2469.821,2019-7-04T05:33:25Z
2019-07-04T03:36:10Z,42.805,6.029,13.2962,4.59969,2469.821,2019-7-04T05:36:28Z
2019-07-04T03:39:13Z,42.805,6.029,13.2962,4.59980,2469.797,2019-7-04T05:39:31Z
2019-07-04T03:42:16Z,42.805,6.029,13.2965,4.59978,2469.821,2019-7-04T05:42:34Z
2019-07-04T03:45:19Z,42.805,6.029,13.2964,4.59973,2469.783,2019-7-04T05:45:37Z
2019-07-04T03:48:22Z,42.805,6.029,13.2964,4.59981,2469.806,2019-7-04T05:48:40Z
2019-07-04T03:51:25Z,42.805,6.029,13.2964,4.59972,2469.844,2019-7-04T05:51:43Z
2019-07-04T03:54:28Z,42.805,6.029,13.2967,4.59966,2469.844,2019-7-04T05:54:45Z
2019-07-04T03:57:31Z,42.805,6.029,13.2959,4.59966,2469.806,2019-7-04T05:57:48Z
2019-07-04T04:00:34Z,42.805,6.029,13.2961,4.59964,2469.797,2019-7-04T06:00:51Z
2019-07-04T04:03:37Z,42.805,6.029,13.2967,4.59965,2469.821,2019-7-04T06:03:54Z
2019-07-04T04:06:40Z,42.805,6.029,13.2961,4.59970,2469.783,2019-7-04T06:06:57Z
2019-07-04T04:09:43Z,42.805,6.029,13.2964,4.59966,2469.821,2019-7-04T06:10:00Z
2019-07-04T04:12:46Z,42.805,6.029,13.2961,4.59968,2469.853,2019-7-04T06:13:03Z
2019-07-04T04:15:49Z,42.805,6.029,13.2964,4.59976,2469.853,2019-7-04T06:16:06Z
2019-07-04T04:18:51Z,42.805,6.029,13.2964,4.59973,2469.806,2019-7-04T06:19:09Z
2019-07-04T04:21:54Z,42.805,6.029,13.2965,4.59976,2469.83,2019-7-04T06:22:12Z
2019-07-04T04:24:57Z,42.805,6.029,13.2962,4.59964,2469.83,2019-7-04T06:25:15Z
2019-07-04T04:28:00Z,42.805,6.029,13.2960,4.59966,2469.853,2019-7-04T06:28:18Z
2019-07-04T04:31:03Z,42.805,6.029,13.2964,4.59974,2469.844,2019-7-04T06:31:21Z
2019-07-04T04:34:06Z,42.805,6.029,13.2964,4.59966,2469.806,2019-7-04T06:34:24Z
2019-07-04T04:37:09Z,42.805,6.029,13.2963,4.59966,2469.806,2019-7-04T06:37:27Z
2019-07-04T04:40:12Z,42.805,6.029,13.2971,4.59978,2469.844,2019-7-04T06:40:30Z
2019-07-04T04:43:15Z,42.805,6.029,13.2960,4.59966,2469.853,2019-7-04T06:43:33Z
2019-07-04T04:46:18Z,42.805,6.029,13.2963,4.59965,2469.844,2019-7-04T06:46:36Z
2019-07-04T04:49:21Z,42.805,6.029,13.2966,4.59968,2469.83,2019-7-04T06:49:38Z
2019-07-04T04:52:24Z,42.805,6.029,13.2968,4.59974,2469.83,2019-7-04T06:52:41Z
2019-07-04T04:55:27Z,42.805,6.029,13.2967,4.59976,2469.844,2019-7-04T06:55:44Z
2019-07-04T04:58:30Z,42.805,6.029,13.2958,4.59966,2469.867,2019-7-04T06:58:47Z
2019-07-04T05:01:33Z,42.805,6.029,13.2961,4.59965,2469.914,2019-7-04T07:01:50Z
2019-07-04T05:04:36Z,42.805,6.029,13.2961,4.59964,2469.844,2019-7-04T07:04:53Z
2019-07-04T05:07:39Z,42.805,6.029,13.2964,4.59967,2469.867,2019-7-04T07:07:56Z
2019-07-04T05:10:42Z,42.805,6.029,13.2963,4.59963,2469.853,2019-7-04T07:10:59Z
2019-07-04T05:13:44Z,42.805,6.029,13.2964,4.59978,2469.853,2019-7-04T07:14:02Z
2019-07-04T05:16:47Z,42.805,6.029,13.2964,4.59968,2469.89,2019-7-04T07:17:05Z
2019-07-04T05:19:50Z,42.805,6.029,13.2964,4.59964,2469.867,2019-7-04T07:20:08Z
2019-07-04T05:22:53Z,42.805,6.029,13.2962,4.59970,2469.867,2019-7-04T07:23:11Z
2019-07-04T05:25:56Z,42.805,6.029,13.2963,4.59973,2469.867,2019-7-04T07:26:14Z
2019-07-04T05:28:59Z,42.805,6.029,13.2958,4.59966,2469.89,2019-7-04T07:29:17Z
2019-07-04T05:32:02Z,42.805,6.029,13.2961,4.59968,2469.89,2019-7-04T07:32:20Z
2019-07-04T05:35:05Z,42.805,6.029,13.2964,4.59968,2469.853,2019-7-04T07:35:23Z
2019-07-04T05:38:08Z,42.805,6.029,13.2965,4.59973,2469.853,2019-7-04T07:38:26Z
2019-07-04T05:41:11Z,42.805,6.029,13.2960,4.59973,2469.914,2019-7-04T07:41:29Z
2019-07-04T05:44:14Z,42.805,6.029,13.2970,4.59989,2469.9,2019-7-04T07:44:31Z
2019-07-04T05:47:17Z,42.805,6.029,13.2962,4.59966,2469.9,2019-7-04T07:47:34Z
2019-07-04T05:50:20Z,42.805,6.029,13.2966,4.59967,2469.89,2019-7-04T07:50:37Z
2019-07-04T05:53:23Z,42.805,6.029,13.2959,4.59967,2469.89,2019-7-04T07:53:40Z
2019-07-04T05:56:26Z,42.805,6.029,13.2960,4.59969,2469.876,2019-7-04T07:56:43Z
2019-07-04T05:59:29Z,42.805,6.029,13.2966,4.59970,2469.9,2019-7-04T07:59:46Z
2019-07-04T06:02:32Z,42.805,6.029,13.2968,4.59984,2469.937,2019-7-04T08:02:49Z
2019-07-04T06:05:35Z,42.805,6.029,13.2959,4.59966,2469.914,2019-7-04T08:05:52Z
2019-07-04T06:08:37Z,42.805,6.029,13.2968,4.59966,2469.876,2019-7-04T08:08:55Z
2019-07-04T06:11:40Z,42.805,6.029,13.2956,4.59968,2469.937,2019-7-04T08:11:58Z
2019-07-04T06:14:43Z,42.805,6.029,13.2966,4.59968,2469.914,2019-7-04T08:15:01Z
2019-07-04T06:17:46Z,42.805,6.029,13.2958,4.59968,2469.9,2019-7-04T08:18:04Z
2019-07-04T06:20:49Z,42.805,6.029,13.2964,4.59971,2469.923,2019-7-04T08:21:07Z
2019-07-04T06:23:52Z,42.805,6.029,13.2976,4.59981,2469.923,2019-7-04T08:24:10Z
2019-07-04T06:26:55Z,42.805,6.029,13.2963,4.59969,2469.876,2019-7-04T08:27:13Z
2019-07-04T06:29:58Z,42.805,6.029,13.2958,4.59966,2469.914,2019-7-04T08:30:16Z
2019-07-04T06:33:01Z,42.805,6.029,13.2961,4.59969,2469.937,2019-7-04T08:33:19Z
2019-07-04T06:36:04Z,42.805,6.029,13.2965,4.59967,2469.923,2019-7-04T08:36:22Z
2019-07-04T06:39:07Z,42.805,6.029,13.2964,4.59963,2469.886,2019-7-04T08:39:24Z
2019-07-04T06:42:10Z,42.805,6.029,13.2961,4.59966,2469.923,2019-7-04T08:42:27Z
2019-07-04T06:45:13Z,42.805,6.029,13.2964,4.59972,2469.923,2019-7-04T08:45:30Z
2019-07-04T06:48:16Z,42.805,6.029,13.2975,4.59976,2469.947,2019-7-04T08:48:33Z
2019-07-04T06:51:19Z,42.805,6.029,13.2972,4.59988,2469.97,2019-7-04T08:51:36Z
2019-07-04T06:54:22Z,42.805,6.029,13.2967,4.59968,2469.923,2019-7-04T08:54:39Z
2019-07-04T06:57:25Z,42.805,6.029,13.2964,4.59970,2469.947,2019-7-04T08:57:42Z
2019-07-04T07:00:28Z,42.805,6.029,13.2965,4.59969,2469.933,2019-7-04T09:00:45Z
2019-07-04T07:03:30Z,42.805,6.029,13.2961,4.59965,2469.923,2019-7-04T09:03:48Z
2019-07-04T07:06:33Z,42.805,6.029,13.2960,4.59978,2469.984,2019-7-04T09:06:51Z
2019-07-04T07:09:36Z,42.805,6.029,13.2961,4.59968,2469.923,2019-7-04T09:09:54Z
2019-07-04T07:12:39Z,42.805,6.029,13.2964,4.59969,2469.947,2019-7-04T09:12:57Z
2019-07-04T07:15:42Z,42.805,6.029,13.2965,4.59973,2469.947,2019-7-04T09:16:00Z
2019-07-04T07:18:45Z,42.805,6.029,13.2967,4.59967,2469.984,2019-7-04T09:19:03Z
2019-07-04T07:21:48Z,42.805,6.029,13.2962,4.59968,2469.96,2019-7-04T09:22:06Z
2019-07-04T07:24:51Z,42.805,6.029,13.2961,4.59966,2469.97,2019-7-04T09:25:09Z
2019-07-04T07:27:54Z,42.805,6.029,13.2965,4.59964,2469.923,2019-7-04T09:28:12Z
2019-07-04T07:30:57Z,42.805,6.029,13.2961,4.59966,2469.97,2019-7-04T09:31:14Z
2019-07-04T07:34:00Z,42.805,6.029,13.2964,4.59973,2469.993,2019-7-04T09:34:17Z
2019-07-04T07:37:03Z,42.805,6.029,13.2963,4.59966,2469.984,2019-7-04T09:37:20Z
2019-07-04T07:40:06Z,42.805,6.029,13.2958,4.59968,2469.984,2019-7-04T09:40:23Z
2019-07-04T07:43:09Z,42.805,6.029,13.2964,4.59980,2469.97,2019-7-04T09:43:26Z
2019-07-04T07:46:12Z,42.805,6.029,13.2963,4.59972,2469.947,2019-7-04T09:46:29Z
2019-07-04T07:49:15Z,42.805,6.029,13.2962,4.59974,2469.937,2019-7-04T09:49:32Z
2019-07-04T07:52:18Z,42.805,6.029,13.2961,4.59971,2469.97,2019-7-04T09:52:35Z
2019-07-04T07:55:20Z,42.805,6.029,13.2970,4.59971,2469.947,2019-7-04T09:55:38Z
2019-07-04T07:58:23Z,42.805,6.029,13.2964,4.59964,2469.947,2019-7-04T09:58:41Z
2019-07-04T08:01:26Z,42.805,6.029,13.2960,4.59966,2469.96,2019-7-04T10:01:44Z
2019-07-04T08:04:29Z,42.805,6.029,13.2964,4.59969,2469.97,2019-7-04T10:04:47Z
2019-07-04T08:07:32Z,42.805,6.029,13.2960,4.59966,2469.947,2019-7-04T10:07:50Z
2019-07-04T08:10:35Z,42.805,6.029,13.2959,4.59963,2469.937,2019-7-04T10:10:53Z
2019-07-04T08:13:38Z,42.805,6.029,13.2963,4.59976,2469.937,2019-7-04T10:13:56Z
2019-07-04T08:16:41Z,42.805,6.029,13.2964,4.59967,2469.947,2019-7-04T10:16:59Z
2019-07-04T08:19:44Z,42.805,6.029,13.2962,4.59983,2469.947,2019-7-04T10:20:02Z
2019-07-04T08:22:47Z,42.805,6.029,13.2962,4.59973,2469.947,2019-7-04T10:23:05Z
2019-07-04T08:25:50Z,42.805,6.029,13.2964,4.59970,2469.96,2019-7-04T10:26:08Z
2019-07-04T08:28:53Z,42.805,6.029,13.2961,4.59967,2469.97,2019-7-04T10:29:10Z
2019-07-04T08:31:56Z,42.805,6.029,13.2961,4.59973,2469.96,2019-7-04T10:32:13Z
2019-07-04T08:34:59Z,42.805,6.029,13.2964,4.59973,2469.96,2019-7-04T10:35:16Z
2019-07-04T08:38:02Z,42.805,6.029,13.2966,4.59969,2469.914,2019-7-04T10:38:19Z
2019-07-04T08:41:05Z,42.805,6.029,13.2961,4.59968,2469.923,2019-7-04T10:41:22Z
2019-07-04T08:44:08Z,42.805,6.029,13.2958,4.59968,2469.923,2019-7-04T10:44:25Z
2019-07-04T08:47:11Z,42.805,6.029,13.2963,4.59971,2469.914,2019-7-04T10:47:28Z
2019-07-04T08:50:14Z,42.805,6.029,13.2958,4.59975,2469.947,2019-7-04T10:50:31Z
2019-07-04T08:53:17Z,42.805,6.029,13.2962,4.59973,2469.923,2019-7-04T10:53:34Z
2019-07-04T08:56:20Z,42.805,6.029,13.2966,4.59975,2469.923,2019-7-04T10:56:37Z
2019-07-04T08:59:22Z,42.805,6.029,13.2968,4.59970,2469.9,2019-7-04T10:59:40Z
2019-07-04T09:02:25Z,42.805,6.029,13.2961,4.59972,2469.923,2019-7-04T11:02:43Z
2019-07-04T09:05:28Z,42.805,6.029,13.2961,4.59970,2469.923,2019-7-04T11:05:46Z
2019-07-04T09:08:31Z,42.805,6.029,13.2974,4.59978,2469.9,2019-7-04T11:08:49Z
2019-07-04T09:11:34Z,42.805,6.029,13.2971,4.59975,2469.914,2019-7-04T11:11:52Z
2019-07-04T09:14:37Z,42.805,6.029,13.2961,4.59974,2469.96,2019-7-04T11:14:55Z
2019-07-04T09:17:40Z,42.805,6.029,13.2966,4.59973,2469.9,2019-7-04T11:17:58Z
2019-07-04T09:20:43Z,42.805,6.029,13.2961,4.59969,2469.923,2019-7-04T11:21:01Z
2019-07-04T09:23:46Z,42.805,6.029,13.2966,4.59983,2469.923,2019-7-04T11:24:04Z
2019-07-04T09:26:49Z,42.805,6.029,13.2962,4.59969,2469.923,2019-7-04T11:27:07Z
2019-07-04T09:29:52Z,42.805,6.029,13.2964,4.59972,2469.937,2019-7-04T11:30:09Z
2019-07-04T09:32:55Z,42.805,6.029,13.2962,4.59967,2469.923,2019-7-04T11:33:12Z
2019-07-04T09:35:58Z,42.805,6.029,13.2963,4.59966,2469.876,2019-7-04T11:36:15Z
2019-07-04T09:39:01Z,42.805,6.029,13.2966,4.59968,2469.937,2019-7-04T11:39:18Z
2019-07-04T09:42:04Z,42.805,6.029,13.2967,4.59966,2469.914,2019-7-04T11:42:21Z
2019-07-04T09:45:07Z,42.805,6.029,13.2958,4.59966,2469.937,2019-7-04T11:45:24Z
2019-07-04T09:48:10Z,42.805,6.029,13.2962,4.59967,2469.947,2019-7-04T11:48:27Z
2019-07-04T09:51:13Z,42.805,6.029,13.2959,4.59964,2469.937,2019-7-04T11:51:30Z
2019-07-04T09:54:16Z,42.805,6.029,13.2966,4.59966,2469.9,2019-7-04T11:54:33Z
2019-07-04T09:57:18Z,42.805,6.029,13.2959,4.59969,2469.9,2019-7-04T11:57:36Z
2019-07-04T10:00:21Z,42.805,6.029,13.2964,4.59971,2469.937,2019-7-04T12:00:39Z
2019-07-04T10:03:24Z,42.805,6.029,13.2966,4.59968,2469.937,2019-7-04T12:03:42Z
2019-07-04T10:06:27Z,42.805,6.029,13.2969,4.59979,2469.937,2019-7-04T12:06:45Z
2019-07-04T10:09:30Z,42.805,6.029,13.2963,4.59972,2469.937,2019-7-04T12:09:48Z
2019-07-04T10:12:33Z,42.805,6.029,13.2967,4.59983,2469.876,2019-7-04T12:12:51Z
2019-07-04T10:15:36Z,42.805,6.029,13.2966,4.59976,2469.9,2019-7-04T12:15:54Z
2019-07-04T10:18:39Z,42.805,6.029,13.2969,4.59986,2469.876,2019-7-04T12:18:57Z
2019-07-04T10:21:42Z,42.805,6.029,13.2961,4.59964,2469.9,2019-7-04T12:22:00Z
2019-07-04T10:24:45Z,42.805,6.029,13.2964,4.59966,2469.9,2019-7-04T12:25:02Z
2019-07-04T10:27:48Z,42.805,6.029,13.2961,4.59967,2469.89,2019-7-04T12:28:05Z
2019-07-04T10:30:51Z,42.805,6.029,13.2960,4.59971,2469.89,2019-7-04T12:31:08Z
2019-07-04T10:33:54Z,42.805,6.029,13.2968,4.59978,2469.89,2019-7-04T12:34:11Z
2019-07-04T10:36:57Z,42.805,6.029,13.2958,4.59970,2469.9,2019-7-04T12:37:14Z
2019-07-04T10:40:00Z,42.805,6.029,13.2969,4.59978,2469.89,2019-7-04T12:40:17Z
2019-07-04T10:43:03Z,42.805,6.029,13.2968,4.59977,2469.89,2019-7-04T12:43:20Z
2019-07-04T10:46:06Z,42.805,6.029,13.2965,4.59973,2469.853,2019-7-04T12:46:23Z
2019-07-04T10:49:09Z,42.805,6.029,13.2964,4.59974,2469.876,2019-7-04T12:49:26Z
2019-07-04T10:52:12Z,42.805,6.029,13.2964,4.59975,2469.89,2019-7-04T12:52:29Z
2019-07-04T10:55:14Z,42.805,6.029,13.2959,4.59969,2469.867,2019-7-04T12:55:32Z
2019-07-04T10:58:17Z,42.805,6.029,13.2959,4.59971,2469.853,2019-7-04T12:58:35Z
2019-07-04T11:01:20Z,42.805,6.029,13.2968,4.59975,2469.914,2019-7-04T13:01:38Z
2019-07-04T11:04:23Z,42.805,6.029,13.2964,4.59971,2469.867,2019-7-04T13:04:41Z
2019-07-04T11:07:26Z,42.805,6.029,13.2961,4.59976,2469.9,2019-7-04T13:07:44Z
2019-07-04T11:10:29Z,42.805,6.029,13.2965,4.59969,2469.853,2019-7-04T13:10:47Z
2019-07-04T11:13:32Z,42.805,6.029,13.2958,4.59975,2469.83,2019-7-04T13:13:50Z
2019-07-04T11:16:35Z,42.805,6.029,13.2960,4.59970,2469.867,2019-7-04T13:16:53Z
2019-07-04T11:19:38Z,42.805,6.029,13.2960,4.59974,2469.853,2019-7-04T13:19:56Z
2019-07-04T11:22:41Z,42.805,6.029,13.2962,4.59968,2469.844,2019-7-04T13:22:59Z
2019-07-04T11:25:44Z,42.805,6.029,13.2969,4.59989,2469.83,2019-7-04T13:26:01Z
2019-07-04T11:28:47Z,42.805,6.029,13.2967,4.59978,2469.83,2019-7-04T13:29:04Z
2019-07-04T11:31:50Z,42.805,6.029,13.2963,4.59968,2469.83,2019-7-04T13:32:07Z
2019-07-04T11:34:53Z,42.805,6.029,13.2968,4.59963,2469.83,2019-7-04T13:35:10Z
2019-07-04T11:37:56Z,42.805,6.029,13.2967,4.59969,2469.853,2019-7-04T13:38:13Z
2019-07-04T11:40:59Z,42.805,6.029,13.2962,4.59966,2469.783,2019-7-04T13:41:16Z
2019-07-04T11:44:02Z,42.805,6.029,13.2967,4.59968,2469.806,2019-7-04T13:44:19Z
2019-07-04T11:47:05Z,42.805,6.029,13.2960,4.59969,2469.821,2019-7-04T13:47:22Z
2019-07-04T11:50:08Z,42.805,6.029,13.2961,4.59981,2469.806,2019-7-04T13:50:25Z
2019-07-04T11:53:11Z,42.805,6.029,13.2968,4.59981,2469.821,2019-7-04T13:53:28Z
2019-07-04T11:56:13Z,42.805,6.029,13.2967,4.59976,2469.806,2019-7-04T13:56:31Z
2019-07-04T11:59:16Z,42.805,6.029,13.2963,4.59986,2469.844,2019-7-04T13:59:34Z
2019-07-04T12:02:19Z,42.805,6.029,13.2965,4.59978,2469.797,2019-7-04T14:02:37Z
2019-07-04T12:05:22Z,42.805,6.029,13.2968,4.59978,2469.83,2019-7-04T14:05:40Z
2019-07-04T12:08:25Z,42.805,6.029,13.2963,4.59991,2469.821,2019-7-04T14:08:43Z
2019-07-04T12:11:28Z,42.805,6.029,13.2972,4.59979,2469.806,2019-7-04T14:11:46Z
2019-07-04T12:14:31Z,42.805,6.029,13.2965,4.59968,2469.783,2019-7-04T14:14:49Z
2019-07-04T12:17:34Z,42.805,6.029,13.2957,4.59965,2469.783,2019-7-04T14:17:52Z
2019-07-04T12:20:37Z,42.805,6.029,13.2966,4.59990,2469.783,2019-7-04T14:20:55Z
2019-07-04T12:23:40Z,42.805,6.029,13.2964,4.59985,2469.783,2019-7-04T14:23:58Z
2019-07-04T12:26:43Z,42.805,6.029,13.2968,4.59970,2469.797,2019-7-04T14:27:00Z
2019-07-04T12:29:46Z,42.805,6.029,13.2961,4.59967,2469.821,2019-7-04T14:30:03Z
2019-07-04T12:32:49Z,42.805,6.029,13.2963,4.59968,2469.821,2019-7-04T14:33:06Z
2019-07-04T12:35:52Z,42.805,6.029,13.2964,4.59966,2469.806,2019-7-04T14:36:09Z
2019-07-04T12:38:55Z,42.805,6.029,13.2958,4.59964,2469.797,2019-7-04T14:39:12Z
2019-07-04T12:41:58Z,42.805,6.029,13.2963,4.59969,2469.783,2019-7-04T14:42:15Z
2019-07-04T12:45:01Z,42.805,6.029,13.2970,4.59971,2469.773,2019-7-04T14:45:18Z
2019-07-04T12:48:04Z,42.805,6.029,13.2964,4.59973,2469.821,2019-7-04T14:48:21Z
2019-07-04T12:51:06Z,42.805,6.029,13.2962,4.59984,2469.76,2019-7-04T14:51:24Z
2019-07-04T12:54:09Z,42.805,6.029,13.2966,4.59971,2469.76,2019-7-04T14:54:27Z
2019-07-04T12:57:12Z,42.805,6.029,13.2961,4.59983,2469.783,2019-7-04T14:57:30Z
2019-07-04T13:00:15Z,42.805,6.029,13.2968,4.59974,2469.821,2019-7-04T15:00:33Z
2019-07-04T13:03:18Z,42.805,6.029,13.2965,4.59967,2469.821,2019-7-04T15:03:36Z
2019-07-04T13:06:21Z,42.805,6.029,13.2964,4.59966,2469.783,2019-7-04T15:06:39Z
2019-07-04T13:09:24Z,42.805,6.029,13.2965,4.59970,2469.783,2019-7-04T15:09:42Z
2019-07-04T13:12:27Z,42.805,6.029,13.2964,4.59966,2469.797,2019-7-04T15:12:45Z
2019-07-04T13:15:30Z,42.805,6.029,13.2967,4.59972,2469.783,2019-7-04T15:15:48Z
2019-07-04T13:18:33Z,42.805,6.029,13.2958,4.59961,2469.773,2019-7-04T15:18:51Z
2019-07-04T13:21:36Z,42.805,6.029,13.2961,4.59963,2469.783,2019-7-04T15:21:54Z
2019-07-04T13:24:39Z,42.805,6.029,13.2964,4.59967,2469.773,2019-7-04T15:24:56Z
2019-07-04T13:27:42Z,42.805,6.029,13.2963,4.59966,2469.783,2019-7-04T15:27:59Z
2019-07-04T13:30:45Z,42.805,6.029,13.2964,4.59964,2469.783,2019-7-04T15:31:02Z
2019-07-04T13:33:48Z,42.805,6.029,13.2959,4.59981,2469.737,2019-7-04T15:34:05Z
2019-07-04T13:36:51Z,42.805,6.029,13.2962,4.59964,2469.783,2019-7-04T15:37:08Z
2019-07-04T13:39:54Z,42.805,6.029,13.2963,4.59976,2469.746,2019-7-04T15:40:11Z
2019-07-04T13:42:57Z,42.805,6.029,13.2964,4.59972,2469.76,2019-7-04T15:43:14Z
2019-07-04T13:46:00Z,42.805,6.029,13.2970,4.59979,2469.797,2019-7-04T15:46:17Z
2019-07-04T13:49:02Z,42.805,6.029,13.2961,4.59971,2469.737,2019-7-04T15:49:20Z
2019-07-04T13:52:05Z,42.805,6.029,13.2964,4.59968,2469.704,2019-7-04T15:52:23Z
2019-07-04T13:55:08Z,42.805,6.029,13.2965,4.59969,2469.75,2019-7-04T15:55:26Z
2019-07-04T13:58:11Z,42.805,6.029,13.2968,4.59983,2469.713,2019-7-04T15:58:29Z
2019-07-04T14:01:14Z,42.805,6.029,13.2964,4.59969,2469.75,2019-7-04T16:01:32Z
2019-07-04T14:04:17Z,42.805,6.029,13.2966,4.59970,2469.76,2019-7-04T16:04:35Z
2019-07-04T14:07:20Z,42.805,6.029,13.2960,4.59966,2469.75,2019-7-04T16:07:38Z
2019-07-04T14:10:23Z,42.805,6.029,13.2961,4.59967,2469.76,2019-7-04T16:10:41Z
2019-07-04T14:13:26Z,42.805,6.029,13.2964,4.59980,2469.75,2019-7-04T16:13:44Z
2019-07-04T14:16:29Z,42.805,6.029,13.2964,4.59971,2469.773,2019-7-04T16:16:47Z
2019-07-04T14:19:32Z,42.805,6.029,13.2961,4.59973,2469.75,2019-7-04T16:19:50Z
2019-07-04T14:22:35Z,42.805,6.029,13.2966,4.59973,2469.727,2019-7-04T16:22:52Z
2019-07-04T14:25:38Z,42.805,6.029,13.2966,4.59968,2469.76,2019-7-04T16:25:55Z
2019-07-04T14:28:41Z,42.805,6.029,13.2962,4.59966,2469.737,2019-7-04T16:28:58Z
2019-07-04T14:31:44Z,42.805,6.029,13.2957,4.59969,2469.727,2019-7-04T16:32:01Z
2019-07-04T14:34:47Z,42.805,6.029,13.2965,4.59978,2469.737,2019-7-04T16:35:04Z
2019-07-04T14:37:50Z,42.805,6.029,13.2964,4.59973,2469.737,2019-7-04T16:38:07Z
2019-07-04T14:40:53Z,42.805,6.029,13.2961,4.59968,2469.737,2019-7-04T16:41:10Z
2019-07-04T14:43:56Z,42.805,6.029,13.2968,4.59968,2469.75,2019-7-04T16:44:13Z
2019-07-04T14:46:59Z,42.805,6.029,13.2964,4.59967,2469.75,2019-7-04T16:47:16Z
2019-07-04T14:50:01Z,42.805,6.029,13.2970,4.59969,2469.797,2019-7-04T16:50:19Z
2019-07-04T14:53:04Z,42.805,6.029,13.2971,4.59976,2469.75,2019-7-04T16:53:22Z
2019-07-04T14:56:07Z,42.805,6.029,13.2964,4.60001,2469.76,2019-7-04T16:56:25Z
2019-07-04T14:59:10Z,42.805,6.029,13.2966,4.59971,2469.737,2019-7-04T16:59:28Z
2019-07-04T15:02:13Z,42.805,6.029,13.2971,4.59974,2469.773,2019-7-04T17:02:31Z
2019-07-04T15:05:16Z,42.805,6.029,13.2962,4.59968,2469.76,2019-7-04T17:05:34Z
2019-07-04T15:08:19Z,42.805,6.029,13.2964,4.59966,2469.76,2019-7-04T17:08:37Z
2019-07-04T15:11:22Z,42.805,6.029,13.2964,4.59971,2469.76,2019-7-04T17:11:40Z
2019-07-04T15:14:25Z,42.805,6.029,13.2967,4.59967,2469.773,2019-7-04T17:14:43Z